Weather WX

World > North America > United States > Minnesota

Champlin, Minnesota Regional Weather

Lat: 45.17N, Lon: 93.39W
Wx Zone: MNZ060
Warning FLW WEATHER ALERT - (More Info. Click Here) Warning
Feedback

Champlin, MN Regional Weather

Expires:201906260500;;086976
ASUS43 KMPX 260410
RWRMN 
WEATHER ROUNDUP FOR MINNESOTA
NATIONAL WEATHER SERVICE TWIN CITIES/CHANHASSEN MN
1100 PM CDT TUE JUN 25 2019


NOTE: "FAIR" INDICATES FEW OR NO CLOUDS BELOW 12,000 FEET WITH NO
SIGNIFICANT WEATHER AND/OR OBSTRUCTIONS TO VISIBILITY. N/A MEANS
CURRENT SKY AND/OR WEATHER CONDITIONS ARE NOT AVAILABLE.


MNZ060>063-068>070-260500-
   Twin Cities Metro   
  
CITY           SKY/WX    TMP DP  RH WIND       PRES   REMARKS
TWIN CITIES    FAIR      73  54  51 SW3       29.89R                  
ST PAUL        FAIR      66  59  78 CALM      29.89R                  
CRYSTAL        FAIR      65  60  84 CALM      29.87R                  
LAKEVILLE      FAIR      68  57  68 SW3       29.90R                  
EDEN PRAIRIE   FAIR      69  53  56 SW5       29.89R                  
SOUTH ST PAUL  FAIR      66  55  68 SW3       29.89R                  
LAKE ELMO        N/A     63  59  88 CALM      29.90R                  
$$

SKY/WX - Weather  TMP - Temperature  DP - Dew Point  RH - Relative Humidity
WIND - Wind Direction/Speed PRES - Barometric Pressure VSB - Visibility
WCI - Wind Chill Index E13G22 Wind - East Wind 13 mph/Gusts of 22 mph